Other Surface Observations
Issued by NWS Tucson, AZ

Home | Current Version | Previous Version | Text Only | Print | Product List | Glossary On
Versions: 1 2 3 4 5 6 7 8 9 10 11 12 13 14 15 16 17 18 19 20 21 22 23 24 25 26 27 28 29 30 31 32 33 34 35 36 37 38 39 40 41 42 43 44 45 46 47 48 49 50
946
SXUS55 KTWC 252015
OSOTWC

WEATHER ROUNDUP FOR SOUTHEAST ARIZONA
NATIONAL WEATHER SERVICE TUCSON AZ
115 PM MST THU MAY 25 2017

AZZ504>506-514-252115-
LOCATION       SKY/WX    TMP DP  RH WIND       PRES   REMARKS
TUCSON         NOT AVBL
DAVIS-MONTHAN  PTSUNNY   93  17   6 W10       29.79F
CHILDRENS PARK N/A      N/A N/A   7 W5                PIMA CO DEQ
ALVERNON/22ND  N/A       92 N/A N/A W9                PIMA CO DEQ
CHERRY/GLENN   N/A      N/A N/A N/A N/A               PIMA CO DEQ
TANGERINE      N/A       91 N/A N/A W12               PIMA CO DEQ
CONTL RANCH    N/A       92  19   7 W11               PIMA CO DEQ
GRANT/1ST      N/A       91  18   7 SW9               PIMA CO DEQ
CRAYCROFT/22ND N/A       91  18   7 W12               PIMA CO DEQ
GOLFLINKS/KOLB N/A      N/A N/A N/A N/A               PIMA CO DEQ
AJO/12TH       N/A       93  23   8 W9                PIMA CO DEQ
FAIRGROUNDS    N/A       90 N/A N/A SW16              PIMA CO DEQ
SAGUARO        N/A       94  17   6 W8G16             *SABINO CYN
SAN CARLOS     N/A       91  15   6 W12G22            *SAN CARLOS
GREEN VALLEY   N/A       91  22   8 SW15              PIMA CO DEQ
HORSE CAMP CYN N/A       84  16   8 SW13G29           *ARAVAIPA CYN
RINCON MTNS    N/A       71  12  10 SW7G17            *NR MANNING CAMP
$$

AZZ509>511-252115-
LOCATION       SKY/WX    TMP DP  RH WIND       PRES   REMARKS
SAFFORD        PTSUNNY   94  14   5 NW20G26   29.76F
STRAY HORSE    N/A       69  14  12 N/A               *
TRAIL CABIN    N/A       77  16  10 W9G17             *N OF GRANVILLE
BLACK HILLS    NOT AVBL
DRY LAKE       N/A       74  16  11 SW7G17            *NATANES MTNS
NOON CREEK     N/A       85  17   8 SW7G17            *PINALENO MTNS
COLUMBINE      N/A       61  17  18 SW6G14            *PINALENO MTNS
GUTHRIE        N/A       76  18  11 SW8G23            *SW OF GUTHRIE
$$

AZZ502-503-513-252115-
LOCATION       SKY/WX    TMP DP  RH WIND       PRES   REMARKS
NOGALES        SUNNY     89  19   7 S18G25    29.91F
SELLS          N/A       93  20   7 N12G19            *
SASABE         N/A       89  20   8 SW14G22           *ALTAR VLY
HOPKINS        N/A       79  15   9 W10G19            *SANTA RITA MTNS
CARR CYN       N/A       84  19   9 S5G16             *W OF HEREFORD
$$

AZZ507-508-512-252115-
LOCATION       SKY/WX    TMP DP  RH WIND       PRES   REMARKS
SIERRA VISTA   SUNNY     86  12   6 W16G26    29.94F
DOUGLAS        MOSUNNY   91  13   5 W24G31    29.90F
EMPIRE MTNS    NOT AVBL
MULESHOE RANCH N/A       86  18   8 W10G21            *PRESERVE
HEADQUARTERS   NOT AVBL
$$

.............................NOTES.............................
THIS IS AN AUTOMATED COLLECTIVE WITH MINIMAL QUALITY CONTROL.
PIMA CO DEQ SITES HAVE NONSTANDARD WIND SENSOR HEIGHTS.
PIMA CO DEQ SITES DO NOT REPORT WIND GUSTS.
* INDICATES WIND SENSORS LOCATED AT 20 FEET INSTEAD OF 33 FEET.
..............................KEY..............................
SKY/WX - SKY CONDITION/WEATHER
TMP    - TEMPERATURE IN FAHRENHEIT
DP     - DEWPOINT IN FAHRENHEIT
RH     - RELATIVE HUMIDITY IN PERCENT
WIND   - DIRECTION AND SPEED IN MILES PER HOUR (MPH)
VRB    - VARIABLE WIND DIRECTION
PRES   - MEAN SEA LEVEL PRESSURE IN INCHES OF MERCURY
         F - FALLING PRESSURE   R - RISING PRESSURE
         S - STEADY PRESSURE
VSB    - VISIBILITY IN MILES
HX     - HEAT INDEX IN FAHRENHEIT
WCI    - WIND CHILL INDEX IN FAHRENHEIT
N/A    - NOT AVAILABLE
AFB    - AIR FORCE BASE
         DAVIS-MONTHAN IS DAVIS-MONTHAN AIR FORCE BASE
CYN    - CANYON
MTNS   - MOUNTAINS
NCA    - NATIONAL CONSERVATION AREA
NR     - NEAR
VLY    - VALLEY
CONTL  - CONTINENTAL
PIMA CO DEQ - PIMA COUNTY DEPT OF ENVIRONMENTAL QUALITY



USA.gov is the U.S. government's official web portal to all federal, state and local government web resources and services.